Orbital Elements at Epoch 2459000.5 (2020-May-31.0) TDB
Reference: JPL 22 (heliocentric ecliptic J2000)
Element | Value | Uncertainty (1-sigma) | Units |
e | .176798575189194 | 3.5672e-08 | |
a | 2.36474747430798 | 9.1624e-09 | au |
q | 1.946663490168084 | 8.0368e-08 | au |
i | 3.16913778060419 | 3.3056e-06 | deg |
node | 90.24185599566728 | 7.4791e-05 | deg |
peri | 159.6547864194438 | 7.5748e-05 | deg |
M | 33.02114645972159 | 1.1873e-05 | deg |
tp | 2458878.666918471925 (2020-Jan-30.16691847) | 4.374e-05 | TDB |
period | 1328.237025434784 3.64 | 7.7195e-06 2.113e-08 | d yr |
n | .2710359620355846 | 1.5752e-09 | deg/d |
Q | 2.782831458447876 | 1.0782e-08 | au |
|
| | Orbit Determination Parameters
Additional Information
|